Location: Pabrico
(37.5827°N, 122.0063°W)
Time: 00:42:13
(UTC+00:00)

ACS3 Solar Sail - Visible Passes

Search period start: 21 June 2024 00:00
Search period end: 01 July 2024 00:00
Orbit: 992 x 1024 km, 97.4° (Epoch: 20 June)

Date Brightness Start Highest point End Pass type
(mag) Time Alt. Az. Time Alt. Az. Time Alt. Az.
21 Jun 5.6 04:52:47 18° SE 04:56:45 35° ENE 05:02:18 10° N visible
21 Jun 6.0 06:38:07 24° SW 06:40:48 33° W 06:46:20 10° NNW visible
22 Jun 4.9 05:27:34 28° SSE 05:30:58 68° ENE 05:37:09 10° N visible
22 Jun 6.9 07:12:54 13° WSW 07:15:33 16° W 07:19:18 10° NW visible
23 Jun 6.4 04:17:37 10° ESE 04:21:50 19° ENE 04:26:03 10° NNE visible
23 Jun 5.1 06:02:22 31° S 06:05:22 63° W 06:11:33 10° NNW visible
24 Jun 5.6 04:51:49 18° SE 04:55:53 37° ENE 05:01:28 10° N visible
24 Jun 6.1 06:37:10 23° SW 06:39:57 32° W 06:45:26 10° NNW visible
25 Jun 4.8 05:26:36 27° SSE 05:30:06 71° ENE 05:36:18 10° N visible
25 Jun 6.9 07:11:57 12° WSW 07:14:44 16° W 07:18:19 10° NW visible
26 Jun 6.3 04:16:39 10° ESE 04:20:58 20° ENE 04:25:16 10° NNE visible
26 Jun 5.1 06:01:25 30° SSW 06:04:30 61° W 06:10:40 10° NNW visible
27 Jun 5.6 04:50:52 17° SE 04:55:00 38° ENE 05:00:39 10° N visible
27 Jun 6.1 06:36:13 21° SW 06:39:06 31° W 06:44:32 10° NNW visible
28 Jun 4.8 05:25:40 27° SSE 05:29:15 73° ENE 05:35:26 10° N visible
28 Jun 6.9 07:11:00 11° WSW 07:13:53 15° W 07:17:19 10° NW visible
29 Jun 6.3 04:15:41 10° ESE 04:20:05 21° ENE 04:24:29 10° NNE visible
29 Jun 5.2 06:00:28 29° SSW 06:03:40 59° W 06:09:47 10° NNW visible
30 Jun 5.5 04:49:56 17° SE 04:54:07 39° ENE 04:59:49 10° N visible
30 Jun 6.2 06:35:16 20° SW 06:38:16 30° W 06:43:37 10° NW visible
